Location: Vibo Valentia
(38.6670°N, 16.1000°E)
Time: 10:56:09
(UTC+02:00)

STARLINK-1353 - Pass Details

Date: 11 October 2020
Orbit: 530 x 533 km, 53.0° (Epoch: 22 October)

Event Time Altitude Azimuth Distance (km) Brightness Sun altitude
Exits shadow 05:37:31 - 332° (NNW) 1,828 6.0 -17.1°
Reaches altitude 10° 05:37:40 10° 334° (NNW) 1,784 6.0 -17.1°
Maximum altitude 05:40:52 22° 26° (NNE) 1,193 5.7 -16.5°
Drops below altitude 10° 05:44:04 10° 78° (ENE) 1,781 7.6 -15.8°
Sets 05:46:40 0° 94° (E) 2,669 8.9 -15.3°
